(311157) = 2004 TQ44

Discovered at Kitt Peak on 2004-10-04 by Spacewatch.

Orbit

Orbit type: Main Belt

Note: WebGL enabled browser required.

epoch2023-02-25.0
epoch JD2460000.5
perihelion date2022-05-10.08397
perihelion JD2459709.58397
argument of perihelion (°)39.93572
ascending node (°)351.10798
inclination (°)2.43104
eccentricity0.2367235
perihelion distance (AU)1.7630019
Tisserand w.r.t. Jupiter3.5
ΔV w.r.t. Earth (km/sec)8.3
semimajor axis (AU)2.3097815
mean anomaly (°)81.67989
mean daily motion (°/day)0.28076790
aphelion distance (AU)2.857
period (years)3.51
P-vector [x]0.85668493
P-vector [y]0.46178326
P-vector [z]0.22988511
Q-vector [x]-0.51579836
Q-vector [y]0.77251220
Q-vector [z]0.37037406
absolute magnitude18.18
phase slope0.15
uncertainty0
referenceMPEC 2023-D28
observations used236
oppositions7
arc length (days)7683
first opposition used2002
last opposition used2023
residual rms (arc-secs)0.79
perturbers coarse indicatorM-v
perturbers precise indicator003Ek
first observation date used2002-02-06.0
last observation date used2023-02-19.0
computer nameMPCLINUX
JD of orbit computation2455924.489177
perihelion JD uncertainty (days)4.6689E-04
argument of perihelion uncertainty (°)3.0407E-04
ascending node uncertainty (°)1.9078E-04
inclination uncertainty (°)1.0880E-05
eccentricity uncertainty 8.8757E-07
perihelion distance uncertainty (AU)2.0662E-06
Minimum Orbit Intersection Distances (in AU)
for orbit epoch: 2460000.5, reference: E2023-D28
Mercury1.43319
Venus1.04177
Earth0.76769
Mars0.31305
Jupiter2.58671
Saturn6.78646
Uranus15.697
Neptune27.8818

Observations

244 total observations over interval: 2002 02 06.36867 – 2023 02 19.287520
These data are available for download (format description).

Date (UT) J2000 RA J2000 Dec Magn Location Ref
2002 02 06.36867 09 48 23.32 +15 28 09.4 21.7 V 291 – LPL/Spacewatch II MPS 309323
2002 02 06.39001 09 48 21.89 +15 28 15.1 21.4 V 291 – LPL/Spacewatch II MPS 309323
2002 02 06.41149 09 48 20.39 +15 28 21.2 21.4 V 291 – LPL/Spacewatch II MPS 309323
2004 10 04.34841 02 29 44.31 +17 47 02.8 19.6 V 691 – Steward Observatory, Kitt Peak-Spacewatch MPS 117737
2004 10 04.38283 02 29 43.34 +17 47 05.5 19.7 V 691 – Steward Observatory, Kitt Peak-Spacewatch MPS 117737
2004 10 04.41143 02 29 42.53 +17 47 07.7 19.7 V 691 – Steward Observatory, Kitt Peak-Spacewatch MPS 117737
2004 10 08.33558 02 27 50.54 +17 50 40.1 19.5 V 691 – Steward Observatory, Kitt Peak-Spacewatch MPS 117737
2004 10 08.36297 02 27 49.54 +17 50 41.1 19.5 V 691 – Steward Observatory, Kitt Peak-Spacewatch MPS 117737
2004 10 08.39008 02 27 48.54 +17 50 41.9 19.6 V 691 – Steward Observatory, Kitt Peak-Spacewatch MPS 117737
2004 10 12.33048 02 25 24.61 +17 51 16.9 19.5 V 691 – Steward Observatory, Kitt Peak-Spacewatch MPS 118524
2004 10 12.35724 02 25 23.42 +17 51 16.6 19.6 V 691 – Steward Observatory, Kitt Peak-Spacewatch MPS 118524
2004 10 12.38422 02 25 22.23 +17 51 16.1 19.5 V 691 – Steward Observatory, Kitt Peak-Spacewatch MPS 118524
2004 10 15.40818 02 23 12.98 +17 49 43.0 19.1 R 699 – Lowell Observatory-LONEOS MPS 118524
2004 10 15.41791 02 23 12.49 +17 49 43.8   699 – Lowell Observatory-LONEOS MPS 118524
2004 10 15.42764 02 23 11.98 +17 49 42.2   699 – Lowell Observatory-LONEOS MPS 118524
2004 10 15.43738 02 23 11.56 +17 49 42.7   699 – Lowell Observatory-LONEOS MPS 118524
2004 10 21.26649 02 18 28.76 +17 42 22.2 19.2   704 – Lincoln Laboratory ETS, New Mexico MPS 118524
2004 10 21.27823 02 18 28.08 +17 42 20.8 19.5   704 – Lincoln Laboratory ETS, New Mexico MPS 118524
2004 10 21.29007 02 18 27.44 +17 42 20.5 19.5   704 – Lincoln Laboratory ETS, New Mexico MPS 118524
2004 10 21.30181 02 18 26.78 +17 42 18.9 19.9   704 – Lincoln Laboratory ETS, New Mexico MPS 118524
2004 10 21.31360 02 18 26.14 +17 42 17.6 19.6   704 – Lincoln Laboratory ETS, New Mexico MPS 118524
2004 10 23.30980 02 16 41.79 +17 38 35.0 18.7   704 – Lincoln Laboratory ETS, New Mexico MPS 118524
2004 10 23.32165 02 16 41.13 +17 38 33.6 19.2   704 – Lincoln Laboratory ETS, New Mexico MPS 118524
2004 10 23.33351 02 16 40.51 +17 38 32.2 19.3   704 – Lincoln Laboratory ETS, New Mexico MPS 118524
2004 10 23.34539 02 16 39.81 +17 38 30.9 19.4   704 – Lincoln Laboratory ETS, New Mexico MPS 118524
2004 10 23.35723 02 16 39.11 +17 38 29.6 19.3   704 – Lincoln Laboratory ETS, New Mexico MPS 118524
2004 10 24.25173 02 15 52.03 +17 36 37.9 19.2   704 – Lincoln Laboratory ETS, New Mexico MPS 118524
2004 10 24.26354 02 15 51.36 +17 36 37.3 19.4   704 – Lincoln Laboratory ETS, New Mexico MPS 118525
2004 10 24.27547 02 15 50.69 +17 36 35.4 19.3   704 – Lincoln Laboratory ETS, New Mexico MPS 118525
2004 10 24.29908 02 15 49.32 +17 36 33.7 19.2   704 – Lincoln Laboratory ETS, New Mexico MPS 118525
2004 11 04.30896 02 06 02.42 +17 07 30.3 19.0 R 703 – Catalina Sky Survey MPS 118525
2004 11 04.31711 02 06 02.09 +17 07 29.4 18.2 R 703 – Catalina Sky Survey MPS 118525
2004 11 04.32520 02 06 01.72 +17 07 27.8 18.1 R 703 – Catalina Sky Survey MPS 118525
2004 11 04.33322 02 06 01.17 +17 07 26.0 19.0 R 703 – Catalina Sky Survey MPS 118525
2004 11 06.23103 02 04 26.70 +17 01 42.5 18.8 R 703 – Catalina Sky Survey MPS 119305
2004 11 06.23675 02 04 26.44 +17 01 41.0 19.4 R 703 – Catalina Sky Survey MPS 119305
2004 11 06.24245 02 04 26.14 +17 01 40.7 18.3 R 703 – Catalina Sky Survey MPS 119305
2004 11 06.24812 02 04 25.80 +17 01 41.6 17.6 R 703 – Catalina Sky Survey MPS 119305
2004 11 12.23031 01 59 55.81 +16 43 40.3 19.3 R 703 – Catalina Sky Survey MPS 119305
2004 11 12.23682 01 59 55.54 +16 43 41.4 19.1 R 703 – Catalina Sky Survey MPS 119305
2004 11 12.24333 01 59 55.27 +16 43 39.7 19.4 R 703 – Catalina Sky Survey MPS 119305
2004 11 12.24990 01 59 54.91 +16 43 38.6 19.4 R 703 – Catalina Sky Survey MPS 119305
2004 11 19.21696 01 55 56.75 +16 25 06.1 18.9 R 703 – Catalina Sky Survey MPS 119866
2004 11 19.22516 01 55 56.49 +16 25 04.0 19.1 R 703 – Catalina Sky Survey MPS 119866
2004 11 19.23339 01 55 56.20 +16 25 03.7 18.8 R 703 – Catalina Sky Survey MPS 119866
2004 11 19.24159 01 55 55.93 +16 25 02.8 19.2 R 703 – Catalina Sky Survey MPS 119866
2009 01 30.29839 09 41 02.78 +16 21 12.6 20.9 V 691 – Steward Observatory, Kitt Peak-Spacewatch MPS 309323
2009 01 30.31655 09 41 01.57 +16 21 17.4 20.7 V 691 – Steward Observatory, Kitt Peak-Spacewatch MPS 309323
2009 01 30.33418 09 41 00.38 +16 21 22.1 20.9 V 691 – Steward Observatory, Kitt Peak-Spacewatch MPS 309323
2009 02 28.22518 09 10 49.08 +18 07 44.1 20.9 V G96 – Mt. Lemmon Survey MPS 309323
2009 02 28.23265 09 10 48.68 +18 07 45.1 21.3 V G96 – Mt. Lemmon Survey MPS 309323
2009 02 28.24019 09 10 48.25 +18 07 46.0 21.5 V G96 – Mt. Lemmon Survey MPS 309323
2009 02 28.24764 09 10 47.89 +18 07 47.0 21.5 V G96 – Mt. Lemmon Survey MPS 309323
2011 09 06.59487 01 58 55.432 +13 28 33.17 20.8 g F51 – Pan-STARRS 1, Haleakala MPS 391097
2011 09 06.60670 01 58 55.659 +13 28 36.62 20.9 g F51 – Pan-STARRS 1, Haleakala MPS 391097
2011 09 27.30106 01 58 46.00 +14 30 59.7 19.7   704 – Lincoln Laboratory ETS, New Mexico MPS 392629
2011 09 27.31385 01 58 45.71 +14 31 00.1 20.1   704 – Lincoln Laboratory ETS, New Mexico MPS 392629
2011 09 27.33931 01 58 44.98 +14 31 01.6 19.9   704 – Lincoln Laboratory ETS, New Mexico MPS 392629
2011 09 27.35205 01 58 44.66 +14 31 01.6 19.6   704 – Lincoln Laboratory ETS, New Mexico MPS 392630
2011 09 30.30240 01 57 26.00 +14 33 25.2 19.7 V 691 – Steward Observatory, Kitt Peak-Spacewatch MPS 392630
2011 09 30.32019 01 57 25.42 +14 33 25.7 19.6 V 691 – Steward Observatory, Kitt Peak-Spacewatch MPS 392630
2011 09 30.33797 01 57 24.82 +14 33 26.3 19.8 V 691 – Steward Observatory, Kitt Peak-Spacewatch MPS 392630
2011 10 17.55287 01 45 04.04 +14 17 09.0 18.9 R D29 – Purple Mountain Observatory, XuYi Station MPS 395017
2011 10 17.56885 01 45 03.17 +14 17 05.6 18.9 R D29 – Purple Mountain Observatory, XuYi Station MPS 395017
2011 10 17.58483 01 45 02.27 +14 17 03.9 19.0 R D29 – Purple Mountain Observatory, XuYi Station MPS 395017
2011 10 19.43296 01 43 24.63 +14 12 46.1 19.0 V G96 – Mt. Lemmon Survey MPS 395017
2011 10 19.44048 01 43 24.24 +14 12 45.0 19.0 V G96 – Mt. Lemmon Survey MPS 395017
2011 10 19.44793 01 43 23.80 +14 12 43.8 19.0 V G96 – Mt. Lemmon Survey MPS 395017
2011 10 19.45537 01 43 23.41 +14 12 42.6 19.1 V G96 – Mt. Lemmon Survey MPS 395017
2011 10 21.31700 01 41 45.48 +14 08 02.6 19.1   704 – Lincoln Laboratory ETS, New Mexico MPS 396286
2011 10 21.31797 01 41 46.029 +14 08 05.03 19.3 w F51 – Pan-STARRS 1, Haleakala MPS 396286
2011 10 21.32880 01 41 44.81 +14 08 01.1 19.3   704 – Lincoln Laboratory ETS, New Mexico MPS 396286
2011 10 21.33179 01 41 45.248 +14 08 03.01 19.4 w F51 – Pan-STARRS 1, Haleakala MPS 396286
2011 10 21.34056 01 41 44.13 +14 07 59.3 19.4   704 – Lincoln Laboratory ETS, New Mexico MPS 396286
2011 10 21.34562 01 41 44.458 +14 08 01.00 19.3 w F51 – Pan-STARRS 1, Haleakala MPS 396286
2011 10 21.35231 01 41 43.45 +14 07 58.6 19.3   704 – Lincoln Laboratory ETS, New Mexico MPS 396286
2011 10 21.36412 01 41 42.85 +14 07 56.0 19.3   704 – Lincoln Laboratory ETS, New Mexico MPS 396286
2011 10 22.25709 01 40 56.04 +14 05 36.1 19.6   704 – Lincoln Laboratory ETS, New Mexico MPS 396286
2011 10 22.26891 01 40 55.26 +14 05 34.4 19.9   704 – Lincoln Laboratory ETS, New Mexico MPS 396286
2011 10 22.28089 01 40 54.59 +14 05 32.7 19.6   704 – Lincoln Laboratory ETS, New Mexico MPS 396286
2011 10 22.29269 01 40 53.97 +14 05 29.1 19.7   704 – Lincoln Laboratory ETS, New Mexico MPS 396286
2011 10 24.25632 01 39 10.69 +14 00 06.7 18.9 V G96 – Mt. Lemmon Survey MPS 396286
2011 10 24.26152 01 39 10.40 +14 00 05.7 18.9 V G96 – Mt. Lemmon Survey MPS 396286
2011 10 24.26677 01 39 10.08 +14 00 04.9 18.9 V G96 – Mt. Lemmon Survey MPS 396286
2011 10 24.27197 01 39 09.79 +14 00 04.0 18.9 V G96 – Mt. Lemmon Survey MPS 396286
2011 10 25.26928 01 38 17.70 +13 57 15.4 19.0 V G96 – Mt. Lemmon Survey MPS 396286
2011 10 25.27206 01 38 17.55 +13 57 15.0 19.0 V G96 – Mt. Lemmon Survey MPS 396286
